JST805 YBCS-YBSU

Flight info

Callsign JST805
Flight time 1h 58m
Altitude 37000
Route AKROM1/15 AKROM Y177 RUROX/N0343F190 W727 SUSGI W534 SEBVA
Aircraft A320/M-SDE3FGHIRWY/LB1

Departure

Time 2026-04-27 11:50
Airport Cairns International Airport (YBCS)

Arrival

Time 2026-04-27 13:48
Airport Sunshine Coast Airport (YBSU)
Time Latitude Longitude Altitude Speed Heading
2026-04-27 11:22 -16.87723 145.75268 15 ft 0 kts 66°
2026-04-27 11:39 -16.87729 145.75252 15 ft 2 kts 66°
2026-04-27 11:40 -16.87736 145.75236 16 ft 2 kts 66°
2026-04-27 11:40 -16.87743 145.75219 15 ft 3 kts 62°
2026-04-27 11:40 -16.87753 145.75205 18 ft 3 kts 26°
2026-04-27 11:40 -16.87769 145.75198 17 ft 2 kts 21°
2026-04-27 11:41 -16.87785 145.75192 16 ft 3 kts
2026-04-27 11:41 -16.87796 145.75192 16 ft 0 kts 351°
2026-04-27 11:43 -16.87794 145.75191 16 ft 1 kts 348°
2026-04-27 11:43 -16.87774 145.75184 17 ft 6 kts 339°
2026-04-27 11:44 -16.87717 145.75158 16 ft 12 kts 336°
2026-04-27 11:44 -16.87654 145.75101 16 ft 13 kts 279°
2026-04-27 11:44 -16.87629 145.75028 17 ft 12 kts 332°
2026-04-27 11:44 -16.87538 145.74985 18 ft 16 kts 335°
2026-04-27 11:45 -16.87414 145.74929 19 ft 22 kts 337°
2026-04-27 11:45 -16.87308 145.74882 16 ft 26 kts 337°
2026-04-27 11:45 -16.87082 145.74780 15 ft 22 kts 333°
2026-04-27 11:45 -16.87053 145.74695 13 ft 0 kts 251°
2026-04-27 11:48 -16.87057 145.74684 13 ft 8 kts 247°
2026-04-27 11:48 -16.87139 145.74615 12 ft 16 kts 182°
2026-04-27 11:48 -16.87171 145.74622 13 ft 0 kts 160°
2026-04-27 11:49 -16.87175 145.74624 13 ft 5 kts 160°
2026-04-27 11:50 -16.87461 145.74750 18 ft 80 kts 157°
2026-04-27 11:50 -16.88152 145.75063 17 ft 135 kts 157°
2026-04-27 11:50 -16.89152 145.75520 127 ft 174 kts 156°
2026-04-27 11:50 -16.90105 145.76351 750 ft 199 kts 113°
2026-04-27 11:51 -16.90014 145.77829 1576 ft 225 kts 65°
2026-04-27 11:51 -16.88956 145.79162 2409 ft 253 kts 44°
2026-04-27 11:51 -16.85628 145.81486 3324 ft 324 kts 40°
2026-04-27 11:52 -16.83826 145.83060 3575 ft 349 kts 49°
2026-04-27 11:52 -16.82537 145.85235 3772 ft 360 kts 75°
2026-04-27 11:52 -16.82277 145.87734 3964 ft 333 kts 97°
2026-04-27 11:52 -16.82998 145.90001 4166 ft 338 kts 124°
2026-04-27 11:53 -16.84594 145.91640 4344 ft 303 kts 147°
2026-04-27 11:53 -16.86333 145.92547 4526 ft 265 kts 157°
2026-04-27 11:53 -16.88002 145.93195 4727 ft 251 kts 159°
2026-04-27 11:53 -16.89624 145.93841 5039 ft 250 kts 156°
2026-04-27 11:54 -16.91241 145.94566 5575 ft 255 kts 154°
2026-04-27 11:54 -16.92850 145.95367 6463 ft 259 kts 152°
2026-04-27 11:54 -16.94468 145.96232 7268 ft 263 kts 151°
2026-04-27 11:54 -16.96090 145.97142 8085 ft 268 kts 150°
2026-04-27 11:55 -16.97735 145.98090 8899 ft 272 kts 150°
2026-04-27 11:55 -16.99400 145.99063 9702 ft 277 kts 149°
2026-04-27 11:55 -17.01090 146.00057 10445 ft 281 kts 150°
2026-04-27 11:55 -17.02811 146.01073 11107 ft 287 kts 151°
2026-04-27 11:56 -17.04572 146.02115 11735 ft 294 kts 152°
2026-04-27 11:56 -17.06194 146.03086 12286 ft 301 kts 153°
2026-04-27 11:56 -17.06560 146.03307 12403 ft 302 kts 153°
2026-04-27 11:56 -17.08419 146.04413 13025 ft 309 kts 154°
2026-04-27 11:57 -17.10314 146.05528 13639 ft 315 kts 154°
2026-04-27 11:57 -17.12239 146.06660 14195 ft 320 kts 154°
2026-04-27 11:57 -17.14165 146.07794 14768 ft 324 kts 154°
2026-04-27 11:57 -17.16071 146.08919 15352 ft 326 kts 154°
2026-04-27 11:58 -17.18054 146.10092 15952 ft 329 kts 154°
2026-04-27 11:58 -17.20106 146.11303 16139 ft 347 kts 154°
2026-04-27 11:58 -17.22265 146.12575 16290 ft 365 kts 154°
2026-04-27 11:58 -17.24506 146.13898 16663 ft 373 kts 154°
2026-04-27 11:59 -17.26786 146.15249 17186 ft 378 kts 154°
2026-04-27 11:59 -17.29084 146.16613 17737 ft 381 kts 153°
2026-04-27 11:59 -17.31394 146.17986 17995 ft 383 kts 154°
2026-04-27 11:59 -17.33724 146.19371 18458 ft 386 kts 154°
2026-04-27 12:00 -17.36066 146.20762 18945 ft 389 kts 153°
2026-04-27 12:00 -17.38425 146.22164 19433 ft 392 kts 153°
2026-04-27 12:00 -17.40807 146.23579 19927 ft 395 kts 153°
2026-04-27 12:00 -17.43210 146.25003 20425 ft 398 kts 153°
2026-04-27 12:01 -17.45638 146.26436 20921 ft 402 kts 153°
2026-04-27 12:01 -17.48080 146.27880 21412 ft 405 kts 153°
2026-04-27 12:01 -17.50547 146.29345 21895 ft 409 kts 153°
2026-04-27 12:01 -17.53012 146.30811 22388 ft 412 kts 153°
2026-04-27 12:02 -17.55525 146.32306 22870 ft 415 kts 153°
2026-04-27 12:02 -17.58019 146.33791 23349 ft 419 kts 153°
2026-04-27 12:02 -17.60558 146.35302 23794 ft 422 kts 153°
2026-04-27 12:02 -17.63121 146.36828 24203 ft 425 kts 153°
2026-04-27 12:03 -17.65695 146.38361 24612 ft 427 kts 153°
2026-04-27 12:03 -17.68201 146.39850 25012 ft 430 kts 153°
2026-04-27 12:03 -17.70802 146.41395 25408 ft 432 kts 153°
2026-04-27 12:03 -17.73391 146.42940 25809 ft 434 kts 153°
2026-04-27 12:04 -17.75979 146.44483 26206 ft 437 kts 153°
2026-04-27 12:04 -17.78625 146.46060 26593 ft 439 kts 153°
2026-04-27 12:04 -17.81291 146.47647 26987 ft 442 kts 153°
2026-04-27 12:04 -17.83949 146.49231 27371 ft 444 kts 153°
2026-04-27 12:05 -17.86665 146.50849 27751 ft 446 kts 153°
2026-04-27 12:05 -17.89362 146.52457 28134 ft 449 kts 153°
2026-04-27 12:05 -17.92097 146.54094 28511 ft 451 kts 153°
2026-04-27 12:05 -17.94830 146.55732 28886 ft 453 kts 153°
2026-04-27 12:06 -17.97542 146.57354 29260 ft 455 kts 153°
2026-04-27 12:06 -18.00300 146.59004 29633 ft 458 kts 153°
2026-04-27 12:06 -18.03080 146.60665 29999 ft 460 kts 153°
2026-04-27 12:06 -18.05879 146.62334 30322 ft 462 kts 153°
2026-04-27 12:07 -18.08676 146.64005 30611 ft 465 kts 153°
2026-04-27 12:07 -18.11504 146.65698 30897 ft 467 kts 153°
2026-04-27 12:07 -18.14338 146.67396 31180 ft 470 kts 153°
2026-04-27 12:07 -18.17149 146.69084 31560 ft 469 kts 153°
2026-04-27 12:08 -18.20016 146.70806 31964 ft 469 kts 153°
2026-04-27 12:08 -18.22808 146.72482 32351 ft 469 kts 153°
2026-04-27 12:08 -18.25644 146.74180 32750 ft 469 kts 153°
2026-04-27 12:08 -18.28485 146.75879 33148 ft 469 kts 153°
2026-04-27 12:09 -18.31320 146.77578 33551 ft 468 kts 153°
2026-04-27 12:09 -18.34150 146.79277 33970 ft 468 kts 153°
2026-04-27 12:09 -18.36977 146.80976 34314 ft 468 kts 153°
2026-04-27 12:09 -18.39822 146.82664 34605 ft 469 kts 154°
2026-04-27 12:10 -18.42675 146.84338 34877 ft 470 kts 154°
2026-04-27 12:10 -18.45539 146.86004 35144 ft 471 kts 155°
2026-04-27 12:10 -18.48415 146.87672 35405 ft 472 kts 155°
2026-04-27 12:10 -18.51299 146.89350 35658 ft 474 kts 155°
2026-04-27 12:11 -18.54187 146.91039 35914 ft 475 kts 155°
2026-04-27 12:11 -18.57079 146.92740 36172 ft 476 kts 155°
2026-04-27 12:11 -18.59961 146.94440 36431 ft 477 kts 155°
2026-04-27 12:11 -18.62861 146.96148 36686 ft 477 kts 155°
2026-04-27 12:12 -18.65730 146.97836 36934 ft 478 kts 155°
2026-04-27 12:12 -18.71548 147.01260 37045 ft 479 kts 155°
2026-04-27 12:13 -18.77350 147.04689 37044 ft 477 kts 155°
2026-04-27 12:13 -18.83139 147.08106 37043 ft 476 kts 155°
2026-04-27 12:14 -18.88918 147.11505 37042 ft 474 kts 155°
2026-04-27 12:14 -18.94668 147.14889 37054 ft 473 kts 155°
2026-04-27 12:15 -19.00418 147.18291 37069 ft 472 kts 154°
2026-04-27 12:15 -19.06156 147.21689 37077 ft 472 kts 154°
2026-04-27 12:16 -19.10917 147.24506 37080 ft 471 kts 154°
2026-04-27 12:16 -19.17552 147.28431 37082 ft 469 kts 154°
2026-04-27 12:17 -19.23227 147.31794 37085 ft 467 kts 154°
2026-04-27 12:17 -19.27941 147.34595 37083 ft 466 kts 154°
2026-04-27 12:18 -19.33585 147.37942 37080 ft 465 kts 154°
2026-04-27 12:18 -19.39233 147.41292 37085 ft 464 kts 154°
2026-04-27 12:19 -19.44860 147.44641 37085 ft 464 kts 154°
2026-04-27 12:19 -19.50473 147.47984 37083 ft 463 kts 154°
2026-04-27 12:20 -19.56096 147.51335 37083 ft 462 kts 154°
2026-04-27 12:20 -19.61705 147.54673 37082 ft 462 kts 154°
2026-04-27 12:21 -19.67305 147.58015 37083 ft 461 kts 153°
2026-04-27 12:21 -19.72901 147.61363 37083 ft 461 kts 154°
2026-04-27 12:22 -19.78448 147.64668 37087 ft 461 kts 154°
2026-04-27 12:22 -19.84072 147.68020 37091 ft 461 kts 154°
2026-04-27 12:23 -19.89646 147.71350 37089 ft 460 kts 154°
2026-04-27 12:23 -19.95199 147.74677 37088 ft 460 kts 153°
2026-04-27 12:24 -20.00780 147.78023 37090 ft 460 kts 153°
2026-04-27 12:24 -20.06347 147.81360 37094 ft 460 kts 154°
2026-04-27 12:25 -20.11928 147.84707 37089 ft 460 kts 154°
2026-04-27 12:25 -20.17504 147.88055 37089 ft 460 kts 154°
2026-04-27 12:26 -20.23080 147.91405 37084 ft 460 kts 154°
2026-04-27 12:26 -20.28658 147.94757 37090 ft 460 kts 154°
2026-04-27 12:27 -20.34228 147.98112 37092 ft 460 kts 154°
2026-04-27 12:27 -20.39803 148.01470 37087 ft 460 kts 154°
2026-04-27 12:28 -20.45343 148.04807 37089 ft 460 kts 154°
2026-04-27 12:28 -20.50922 148.08170 37092 ft 461 kts 154°
2026-04-27 12:29 -20.56515 148.11543 37094 ft 461 kts 154°
2026-04-27 12:29 -20.62105 148.14919 37099 ft 462 kts 154°
2026-04-27 12:30 -20.67703 148.18301 37105 ft 462 kts 154°
2026-04-27 12:30 -20.73302 148.21696 37108 ft 463 kts 154°
2026-04-27 12:31 -20.78897 148.25094 37108 ft 463 kts 154°
2026-04-27 12:31 -20.84503 148.28495 37111 ft 463 kts 154°
2026-04-27 12:32 -20.90105 148.31894 37116 ft 463 kts 154°
2026-04-27 12:32 -20.95705 148.35299 37115 ft 463 kts 155°
2026-04-27 12:33 -21.01282 148.38682 37122 ft 464 kts 155°
2026-04-27 12:33 -21.06895 148.42094 37125 ft 464 kts 155°
2026-04-27 12:34 -21.12514 148.45523 37131 ft 464 kts 155°
2026-04-27 12:34 -21.18116 148.48941 37132 ft 464 kts 155°
2026-04-27 12:35 -21.23739 148.52372 37131 ft 464 kts 155°
2026-04-27 12:35 -21.29358 148.55800 37132 ft 464 kts 155°
2026-04-27 12:36 -21.34968 148.59225 37131 ft 464 kts 155°
2026-04-27 12:36 -21.40579 148.62659 37135 ft 464 kts 155°
2026-04-27 12:37 -21.46161 148.66078 37131 ft 465 kts 155°
2026-04-27 12:37 -21.51784 148.69526 37137 ft 465 kts 156°
2026-04-27 12:38 -21.57395 148.72968 37135 ft 465 kts 156°
2026-04-27 12:38 -21.63019 148.76422 37138 ft 465 kts 156°
2026-04-27 12:39 -21.68648 148.79876 37140 ft 466 kts 156°
2026-04-27 12:39 -21.74273 148.83335 37145 ft 466 kts 156°
2026-04-27 12:40 -21.79903 148.86805 37139 ft 466 kts 156°
2026-04-27 12:40 -21.85482 148.90236 37141 ft 466 kts 156°
2026-04-27 12:41 -21.91126 148.93719 37138 ft 467 kts 156°
2026-04-27 12:41 -21.96759 148.97200 37139 ft 467 kts 156°
2026-04-27 12:42 -22.02406 149.00684 37150 ft 468 kts 156°
2026-04-27 12:42 -22.08044 149.04175 37145 ft 468 kts 156°
2026-04-27 12:43 -22.13699 149.07681 37151 ft 468 kts 156°
2026-04-27 12:43 -22.19346 149.11177 37147 ft 468 kts 156°
2026-04-27 12:44 -22.25010 149.14684 37144 ft 469 kts 156°
2026-04-27 12:44 -22.30672 149.18195 37138 ft 469 kts 156°
2026-04-27 12:45 -22.36308 149.21700 37146 ft 470 kts 156°
2026-04-27 12:45 -22.41990 149.25239 37151 ft 470 kts 156°
2026-04-27 12:46 -22.47628 149.28756 37151 ft 470 kts 157°
2026-04-27 12:46 -22.53297 149.32286 37151 ft 469 kts 156°
2026-04-27 12:46 -22.56104 149.34039 37471 ft 464 kts 157°
2026-04-27 12:47 -22.58917 149.35794 37306 ft 468 kts 157°
2026-04-27 12:47 -22.61737 149.37552 37125 ft 467 kts 157°
2026-04-27 12:47 -22.64546 149.39305 37118 ft 466 kts 157°
2026-04-27 12:48 -22.70154 149.42809 37118 ft 467 kts 157°
2026-04-27 12:48 -22.75789 149.46330 37128 ft 468 kts 157°
2026-04-27 12:49 -22.81437 149.49858 37130 ft 469 kts 157°
2026-04-27 12:49 -22.87100 149.53414 37140 ft 470 kts 157°
2026-04-27 12:50 -22.92758 149.56976 37147 ft 470 kts 157°
2026-04-27 12:50 -22.98384 149.60511 37149 ft 471 kts 157°
2026-04-27 12:51 -23.04058 149.64071 37150 ft 471 kts 157°
2026-04-27 12:51 -23.09734 149.67643 37146 ft 471 kts 157°
2026-04-27 12:52 -23.15405 149.71228 37155 ft 471 kts 157°
2026-04-27 12:52 -23.21041 149.74798 37158 ft 471 kts 157°
2026-04-27 12:53 -23.29549 149.80187 37157 ft 472 kts 157°
2026-04-27 12:53 -23.35220 149.83785 37167 ft 472 kts 157°
2026-04-27 12:54 -23.40888 149.87386 37168 ft 472 kts 157°
2026-04-27 12:54 -23.46565 149.90999 37169 ft 472 kts 157°
2026-04-27 12:55 -23.52227 149.94591 37175 ft 472 kts 157°
2026-04-27 12:55 -23.57903 149.98197 37170 ft 472 kts 156°
2026-04-27 12:56 -23.63560 150.01804 37180 ft 472 kts 156°
2026-04-27 12:56 -23.69230 150.05424 37182 ft 472 kts 156°
2026-04-27 12:57 -23.74871 150.09031 37184 ft 472 kts 156°
2026-04-27 12:57 -23.80539 150.12657 37184 ft 472 kts 156°
2026-04-27 12:58 -23.86204 150.16283 37184 ft 472 kts 156°
2026-04-27 12:58 -23.91871 150.19913 37188 ft 471 kts 156°
2026-04-27 12:59 -23.97526 150.23537 37191 ft 471 kts 156°
2026-04-27 12:59 -24.03181 150.27163 37188 ft 471 kts 156°
2026-04-27 13:00 -24.08832 150.30794 37192 ft 470 kts 156°
2026-04-27 13:00 -24.14470 150.34425 37193 ft 470 kts 156°
2026-04-27 13:01 -24.20110 150.38057 37198 ft 470 kts 156°
2026-04-27 13:01 -24.25746 150.41689 37198 ft 470 kts 155°
2026-04-27 13:02 -24.31338 150.45301 37192 ft 469 kts 155°
2026-04-27 13:02 -24.36972 150.48935 37201 ft 469 kts 155°
2026-04-27 13:03 -24.41652 150.51956 37204 ft 468 kts 155°
2026-04-27 13:03 -24.47259 150.55592 37203 ft 468 kts 155°
2026-04-27 13:04 -24.52446 150.59978 37208 ft 475 kts 142°
2026-04-27 13:04 -24.57363 150.64856 37214 ft 475 kts 142°
2026-04-27 13:05 -24.62271 150.69730 37220 ft 474 kts 142°
2026-04-27 13:05 -24.67132 150.74563 37225 ft 474 kts 142°
2026-04-27 13:06 -24.72028 150.79421 37222 ft 474 kts 142°
2026-04-27 13:06 -24.76922 150.84280 37223 ft 473 kts 142°
2026-04-27 13:07 -24.81806 150.89151 37230 ft 473 kts 142°
2026-04-27 13:07 -24.86665 150.94002 37230 ft 473 kts 142°
2026-04-27 13:08 -24.91556 150.98884 37232 ft 472 kts 142°
2026-04-27 13:08 -24.96420 151.03743 37228 ft 472 kts 142°
2026-04-27 13:09 -25.01272 151.08609 37236 ft 471 kts 142°
2026-04-27 13:09 -25.06119 151.13467 37238 ft 471 kts 142°
2026-04-27 13:10 -25.10965 151.18324 37227 ft 470 kts 141°
2026-04-27 13:10 -25.15790 151.23167 37227 ft 470 kts 141°
2026-04-27 13:11 -25.20581 151.27992 37224 ft 470 kts 141°
2026-04-27 13:11 -25.25414 151.32852 37227 ft 469 kts 141°
2026-04-27 13:12 -25.30237 151.37713 37227 ft 469 kts 141°
2026-04-27 13:12 -25.35051 151.42570 37228 ft 468 kts 141°
2026-04-27 13:13 -25.39862 151.47428 37228 ft 468 kts 141°
2026-04-27 13:13 -25.44661 151.52275 37228 ft 467 kts 141°
2026-04-27 13:14 -25.49450 151.57130 37228 ft 466 kts 141°
2026-04-27 13:14 -25.54238 151.61988 37227 ft 466 kts 141°
2026-04-27 13:15 -25.59013 151.66839 37228 ft 466 kts 138°
2026-04-27 13:15 -25.63139 151.72349 36248 ft 467 kts 131°
2026-04-27 13:16 -25.65175 151.75188 35043 ft 469 kts 131°
2026-04-27 13:16 -25.67176 151.77988 34256 ft 458 kts 131°
2026-04-27 13:16 -25.69128 151.80719 33414 ft 447 kts 131°
2026-04-27 13:16 -25.71040 151.83399 32561 ft 438 kts 131°
2026-04-27 13:17 -25.72914 151.86026 31698 ft 430 kts 130°
2026-04-27 13:17 -25.74751 151.88602 30845 ft 423 kts 130°
2026-04-27 13:17 -25.76563 151.91144 29958 ft 417 kts 130°
2026-04-27 13:17 -25.78349 151.93647 28972 ft 411 kts 130°
2026-04-27 13:18 -25.80117 151.96118 28008 ft 407 kts 130°
2026-04-27 13:18 -25.81869 151.98568 27093 ft 403 kts 130°
2026-04-27 13:18 -25.83602 152.00992 26206 ft 400 kts 130°
2026-04-27 13:18 -25.85323 152.03397 25389 ft 397 kts 130°
2026-04-27 13:19 -25.87036 152.05792 24584 ft 394 kts 129°
2026-04-27 13:19 -25.88733 152.08174 23736 ft 392 kts 129°
2026-04-27 13:19 -25.90418 152.10542 22843 ft 389 kts 129°
2026-04-27 13:19 -25.92064 152.12856 22005 ft 384 kts 129°
2026-04-27 13:20 -25.93708 152.15168 21197 ft 378 kts 129°
2026-04-27 13:20 -25.95329 152.17442 20413 ft 372 kts 128°
2026-04-27 13:20 -25.96922 152.19679 19628 ft 366 kts 128°
2026-04-27 13:20 -25.98516 152.21923 18286 ft 375 kts 127°
2026-04-27 13:21 -26.00157 152.24234 16699 ft 385 kts 127°
2026-04-27 13:21 -26.01815 152.26570 15763 ft 378 kts 127°
2026-04-27 13:21 -26.03387 152.28783 15545 ft 352 kts 127°
2026-04-27 13:21 -26.04873 152.30881 15346 ft 339 kts 127°
2026-04-27 13:22 -26.06311 152.32915 15155 ft 328 kts 127°
2026-04-27 13:22 -26.07698 152.34876 14960 ft 318 kts 127°
2026-04-27 13:22 -26.09045 152.36780 14767 ft 310 kts 127°
2026-04-27 13:22 -26.10376 152.38662 14578 ft 308 kts 127°
2026-04-27 13:23 -26.11695 152.40527 14391 ft 306 kts 127°
2026-04-27 13:23 -26.13010 152.42386 14088 ft 305 kts 127°
2026-04-27 13:23 -26.14318 152.44235 13727 ft 303 kts 127°
2026-04-27 13:23 -26.15618 152.46071 13361 ft 301 kts 127°
2026-04-27 13:24 -26.16895 152.47874 12952 ft 301 kts 127°
2026-04-27 13:24 -26.18191 152.49713 12493 ft 302 kts 127°
2026-04-27 13:24 -26.19491 152.51560 12004 ft 304 kts 127°
2026-04-27 13:24 -26.20801 152.53426 11521 ft 306 kts 127°
2026-04-27 13:25 -26.22094 152.55266 11123 ft 297 kts 127°
2026-04-27 13:25 -26.23349 152.57043 10761 ft 287 kts 127°
2026-04-27 13:25 -26.24561 152.58764 10420 ft 279 kts 127°
2026-04-27 13:25 -26.25742 152.60440 10079 ft 271 kts 127°
2026-04-27 13:26 -26.26889 152.62069 9729 ft 263 kts 127°
2026-04-27 13:26 -26.27997 152.63645 9407 ft 254 kts 127°
2026-04-27 13:26 -26.29060 152.65159 9106 ft 250 kts 126°
2026-04-27 13:26 -26.30088 152.66760 8791 ft 251 kts 123°
2026-04-27 13:27 -26.31059 152.68372 8479 ft 251 kts 123°
2026-04-27 13:27 -26.32030 152.70013 7808 ft 261 kts 123°
2026-04-27 13:27 -26.32954 152.71572 8253 ft 228 kts 123°
2026-04-27 13:27 -26.33869 152.73095 8018 ft 243 kts 123°
2026-04-27 13:28 -26.34836 152.74712 7393 ft 257 kts 123°
2026-04-27 13:28 -26.35826 152.76370 6924 ft 262 kts 123°
2026-04-27 13:28 -26.36845 152.78071 6611 ft 259 kts 123°
2026-04-27 13:28 -26.37828 152.79709 6284 ft 256 kts 123°
2026-04-27 13:29 -26.38818 152.81358 5950 ft 255 kts 124°
2026-04-27 13:29 -26.39800 152.82994 5640 ft 253 kts 124°
2026-04-27 13:29 -26.40773 152.84616 5317 ft 251 kts 124°
2026-04-27 13:29 -26.41747 152.86234 5000 ft 249 kts 124°
2026-04-27 13:30 -26.42676 152.87779 4797 ft 231 kts 124°
2026-04-27 13:30 -26.43439 152.89314 4434 ft 222 kts 110°
2026-04-27 13:30 -26.43837 152.90939 4128 ft 211 kts 108°
2026-04-27 13:30 -26.44204 152.92483 3865 ft 200 kts 108°
2026-04-27 13:31 -26.44552 152.93937 3598 ft 188 kts 108°
2026-04-27 13:31 -26.44888 152.95300 3379 ft 177 kts 113°
2026-04-27 13:31 -26.45488 152.96403 3197 ft 161 kts 133°
2026-04-27 13:31 -26.46307 152.97155 2956 ft 144 kts 141°
2026-04-27 13:32 -26.47079 152.97812 2787 ft 136 kts 142°
2026-04-27 13:32 -26.47824 152.98452 2606 ft 134 kts 142°
2026-04-27 13:32 -26.48559 152.99081 2440 ft 134 kts 142°
2026-04-27 13:32 -26.49293 152.99708 2261 ft 131 kts 143°
2026-04-27 13:33 -26.50019 153.00332 2098 ft 132 kts 143°
2026-04-27 13:33 -26.50750 153.00958 1897 ft 132 kts 145°
2026-04-27 13:33 -26.51475 153.01579 1755 ft 130 kts 143°
2026-04-27 13:33 -26.52194 153.02197 1572 ft 130 kts 143°
2026-04-27 13:34 -26.52910 153.02810 1392 ft 130 kts 142°
2026-04-27 13:34 -26.53629 153.03426 1225 ft 131 kts 144°
2026-04-27 13:34 -26.54354 153.04046 1039 ft 133 kts 145°
2026-04-27 13:34 -26.55090 153.04671 820 ft 131 kts 147°
2026-04-27 13:35 -26.55815 153.05297 627 ft 132 kts 146°
2026-04-27 13:35 -26.56528 153.05935 505 ft 129 kts 147°
2026-04-27 13:35 -26.57222 153.06557 354 ft 131 kts 146°
2026-04-27 13:35 -26.57968 153.07164 167 ft 133 kts 148°
2026-04-27 13:36 -26.58706 153.07791 28 ft 123 kts 149°
2026-04-27 13:36 -26.59345 153.08320 99 ft 121 kts 148°
2026-04-27 13:36 -26.60087 153.08922 522 ft 143 kts 148°
2026-04-27 13:36 -26.60932 153.09577 1209 ft 148 kts 149°
2026-04-27 13:37 -26.61808 153.10187 1838 ft 153 kts 148°
2026-04-27 13:37 -26.62808 153.10835 2001 ft 177 kts 149°
2026-04-27 13:37 -26.63907 153.11530 2002 ft 184 kts 150°
2026-04-27 13:37 -26.65036 153.12233 2009 ft 186 kts 150°
2026-04-27 13:38 -26.66166 153.12928 2008 ft 185 kts 150°
2026-04-27 13:38 -26.67244 153.13685 2007 ft 181 kts 139°
2026-04-27 13:38 -26.67830 153.14877 2010 ft 182 kts 105°
2026-04-27 13:38 -26.67700 153.16296 2009 ft 192 kts 74°
2026-04-27 13:39 -26.66826 153.17455 2015 ft 203 kts 37°
2026-04-27 13:39 -26.65431 153.17817 2006 ft 216 kts 356°
2026-04-27 13:39 -26.63944 153.17402 2020 ft 222 kts 346°
2026-04-27 13:39 -26.62472 153.16935 2012 ft 219 kts 347°
2026-04-27 13:40 -26.60991 153.16518 2011 ft 218 kts 352°
2026-04-27 13:40 -26.59491 153.16263 2013 ft 215 kts 355°
2026-04-27 13:40 -26.58030 153.16036 2011 ft 210 kts 349°
2026-04-27 13:40 -26.56657 153.15620 2006 ft 200 kts 346°
2026-04-27 13:41 -26.55335 153.15181 2015 ft 196 kts 346°
2026-04-27 13:41 -26.54042 153.14745 2012 ft 193 kts 346°
2026-04-27 13:41 -26.52769 153.14316 2010 ft 195 kts 346°
2026-04-27 13:41 -26.51467 153.13880 2009 ft 196 kts 346°
2026-04-27 13:42 -26.50166 153.13443 2012 ft 195 kts 347°
2026-04-27 13:42 -26.48863 153.13007 2008 ft 195 kts 346°
2026-04-27 13:42 -26.47566 153.12575 2002 ft 195 kts 346°
2026-04-27 13:42 -26.46258 153.12128 2006 ft 197 kts 341°
2026-04-27 13:43 -26.45161 153.11231 2009 ft 197 kts 303°
2026-04-27 13:43 -26.44678 153.09857 2015 ft 188 kts 268°
2026-04-27 13:43 -26.44840 153.08464 2010 ft 179 kts 247°
2026-04-27 13:43 -26.45148 153.07109 2008 ft 180 kts 247°
2026-04-27 13:44 -26.45460 153.05777 2008 ft 172 kts 243°
2026-04-27 13:44 -26.45949 153.04616 2008 ft 161 kts 229°
2026-04-27 13:44 -26.46629 153.03647 1995 ft 157 kts 216°
2026-04-27 13:44 -26.47453 153.02885 2011 ft 151 kts 205°
2026-04-27 13:45 -26.48364 153.02351 2017 ft 146 kts 194°
2026-04-27 13:45 -26.49335 153.02044 2008 ft 141 kts 184°
2026-04-27 13:45 -26.50272 153.01955 1887 ft 131 kts 174°
2026-04-27 13:45 -26.51156 153.02054 1747 ft 128 kts 166°
2026-04-27 13:46 -26.52018 153.02329 1564 ft 129 kts 158°
2026-04-27 13:46 -26.52818 153.02771 1388 ft 129 kts 149°
2026-04-27 13:46 -26.53548 153.03361 1216 ft 129 kts 145°
2026-04-27 13:46 -26.54264 153.03974 1039 ft 130 kts 144°
2026-04-27 13:47 -26.54986 153.04591 854 ft 130 kts 145°
2026-04-27 13:47 -26.55709 153.05210 686 ft 132 kts 144°
2026-04-27 13:47 -26.56433 153.05832 523 ft 130 kts 148°
2026-04-27 13:47 -26.57146 153.06444 355 ft 128 kts 148°
2026-04-27 13:48 -26.57866 153.07061 172 ft 133 kts 145°
2026-04-27 13:48 -26.58592 153.07694 29 ft 124 kts 147°
2026-04-27 13:48 -26.59145 153.08150 23 ft 69 kts 140°
2026-04-27 13:48 -26.59420 153.08393 22 ft 43 kts 141°
2026-04-27 13:49 -26.59654 153.08593 24 ft 42 kts 140°
2026-04-27 13:49 -26.59889 153.08791 25 ft 42 kts 142°
2026-04-27 13:49 -26.60036 153.08911 23 ft 20 kts 160°
2026-04-27 13:49 -26.60119 153.08873 26 ft 10 kts 219°
2026-04-27 13:50 -26.60128 153.08856 24 ft 0 kts 241°
2026-04-27 13:50 -26.60135 153.08844 24 ft 9 kts 239°
2026-04-27 13:50 -26.60217 153.08845 25 ft 15 kts 142°
2026-04-27 13:50 -26.60273 153.08883 24 ft 9 kts 185°
2026-04-27 13:51 -26.60295 153.08872 24 ft 0 kts 209°
2026-04-27 13:51 -26.60296 153.08872 24 ft 1 kts 209°
2026-04-27 13:51 -26.60309 153.08861 25 ft 4 kts 216°
2026-04-27 13:51 -26.60332 153.08868 26 ft 3 kts 141°
2026-04-27 13:52 -26.60351 153.08883 24 ft 5 kts 144°
2026-04-27 13:52 -26.60363 153.08893 26 ft 3 kts 145°
2026-04-27 13:52 -26.60392 153.08887 26 ft 6 kts 220°
2026-04-27 13:52 -26.60406 153.08867 24 ft 2 kts 234°
2026-04-27 13:53 -26.60419 153.08848 26 ft 0 kts 233°
2026-04-27 13:53 -26.60420 153.08846 25 ft 0 kts 232°